"Pseudo-MPEC" for ZTF03a6

Created 2019 Jun 19 16:07:54 UT using Find_Orb

Click here for an explanation of pseudo-MPECs

 
 Astrometry: 
     ZTF03a6  C2019 06 05.45909701 34 39.23 +24 21 09.2    ~65M7 19.78r NEOCPI41
     ZTF03a6  C2019 06 05.46191001 34 39.38 +24 21 05.9    ~65M7 19.77r NEOCPI41
     ZTF03a6  C2019 06 05.46938701 34 39.89 +24 20 55.6    ~65M7 19.98r NEOCPI41
     ZTF03a6 KC2019 06 06yIUe27/ri6P4b)J2RAOIuK[ULL^kKaF%MX=6Q`[b;wEqHWJi`M1.J04
     ZTF03a6 KC2019 06 06M][eO`LufS.]j_CpAstrometryt+1q*)?a-bGZZ3i-pJry0yuPR]J04
     ZTF03a6 KC2019 06 063BB09;$redacted;gEa-`nIbO*urkEBE,=t7IW$FS59IP=6P%wjMJ04
     ZTF03a6  C2019 06 07G,+[tv'pnW1n51r[dat38k#Bp!fxsaTO][y,a0=;X,L+gjclicklJ04
     ZTF03a6  C2019 06 07;#*-'W\mU^f0y@here96V8BqI`g'F924*%Oac6Bjn$7##3;wLR-?J04
     ZTF03a6  C2019 06 07t%h4lI[for_\IC;R_$i'H7`explanation_:b(r:TJGsxL;gre2GJ04
     ZTF03a6  C2019 06 08.46862301 38 14.59 +23 16 39.4    ~6EMb 18.57r NEOCPI41

Station data:
(I41) Palomar Mountain--ZTF  (N33.357340 W116.859780)  US/California. 1.2-m
   f/2.44 Oschin Schmidt + CCD.
(J04) ESA Optical Ground Station, Tenerife  (N28.300924 W16.511830)  Canary
   Islands (Spain).  Observer D. Abreu. Measurers M. Micheli, D. Koschny, E.
   Schwab, M. Busch, A. Knöfel. 1.0-m f/4.4 reflector + CCD.

Orbital elements:  ZTF03a6
   Perihelion 2019 Apr 27.527837 +/- 0.0599 TT = 12:40:05 (JD 2458601.027837)
Epoch 2019 Jun  8.0 TT = JDT 2458642.5   Earth MOID: 0.0728   Me: 0.0260
M  75.87856923 +/- 0.49             (J2000 ecliptic)          AutoNEOCP
n   1.82962651 +/- 0.0127           Peri.   22.37920 +/- 0.40
a   0.66205553 +/- 0.00305          Node   146.44309 +/- 0.15
e   0.5043475 +/- 0.00283           Incl.   29.98925 +/- 0.25
P   0.54/196.76d           H 18.1   G  0.15   U  9.8  
q 0.32814946 +/- 0.00325    Q 0.99596160 +/- 0.00321
From 10 observations 2019 June 5-8; mean residual 0".19
Residuals in arcseconds: 
190605 I41  .02+  .01-    190606 J04  .19-  .04-    190607 J04  .31+  .03+    
190605 I41  .30-  .32+    190606 J04  .15+  .04-    190608 I41  .03-  .01+    
190605 I41  .38+  .34-    190607 J04  .02+  .13-    
190606 J04  .26-  .15+    190607 J04  .11-  .05+    

Ephemerides (geocentric):
Date (UTC) HH   RA              Dec         delta   r     elong  mag " sig PA
---- -- -- --  -------------   -----------  ------ ------ -----  --- ---- ---
2019 06 19 16  01 57 47.977   +19 36 30.75  .76543 .83792  53.9 19.9 21.7  47
2019 06 19 17  01 57 53.196   +19 35 43.93  .76541 .83822  53.9 19.9 21.9  47
2019 06 19 18  01 57 58.420   +19 34 57.12  .76539 .83852  54.0 19.9 22.0  47
2019 06 19 19  01 58 03.649   +19 34 10.32  .76537 .83881  54.0 19.9 22.1  46
2019 06 19 20  01 58 08.883   +19 33 23.53  .76535 .83911  54.0 19.9 22.3  46
2019 06 19 21  01 58 14.123   +19 32 36.75  .76532 .83941  54.0 19.9 22.4  46
2019 06 19 22  01 58 19.368   +19 31 49.98  .76530 .83970  54.0 19.9 22.5  46
2019 06 19 23  01 58 24.618   +19 31 03.22  .76528 .84000  54.1 19.9 22.7  46
2019 06 20 00  01 58 29.873   +19 30 16.47  .76525 .84030  54.1 19.9 22.8  46
2019 06 20 01  01 58 35.134   +19 29 29.73  .76523 .84059  54.1 19.9 22.9  46
2019 06 20 02  01 58 40.399   +19 28 43.00  .76521 .84089  54.1 19.9 23.1  46
2019 06 20 03  01 58 45.670   +19 27 56.28  .76518 .84118  54.2 19.9 23.2  46
2019 06 20 04  01 58 50.947   +19 27 09.57  .76516 .84148  54.2 19.9 23.3  46
2019 06 20 05  01 58 56.228   +19 26 22.87  .76513 .84177  54.2 19.9 23.5  46
2019 06 20 06  01 59 01.514   +19 25 36.18  .76511 .84207  54.2 19.9 23.6  46
2019 06 20 07  01 59 06.806   +19 24 49.50  .76508 .84236  54.3 19.9 23.7  46
2019 06 20 08  01 59 12.103   +19 24 02.83  .76506 .84265  54.3 19.9 23.9  46
2019 06 20 09  01 59 17.405   +19 23 16.17  .76503 .84295  54.3 19.9 24.0  46
2019 06 20 10  01 59 22.712   +19 22 29.51  .76501 .84324  54.3 19.9 24.1  46
2019 06 20 11  01 59 28.024   +19 21 42.87  .76498 .84353  54.3 19.9 24.3  46
2019 06 20 12  01 59 33.342   +19 20 56.23  .76495 .84383  54.4 19.9 24.4  46
2019 06 20 13  01 59 38.664   +19 20 09.61  .76492 .84412  54.4 19.9 24.6  46
2019 06 20 14  01 59 43.992   +19 19 22.99  .76490 .84441  54.4 19.9 24.7  46
2019 06 20 15  01 59 49.325   +19 18 36.38  .76487 .84470  54.4 19.9 24.8  46
2019 06 20 16  01 59 54.663   +19 17 49.78  .76484 .84499  54.5 19.9 25.0  46
2019 06 20 17  02 00 00.006   +19 17 03.19  .76481 .84529  54.5 19.9 25.1  46
2019 06 20 18  02 00 05.354   +19 16 16.61  .76478 .84558  54.5 19.9 25.2  46
2019 06 20 19  02 00 10.707   +19 15 30.04  .76476 .84587  54.5 19.9 25.4  46
2019 06 20 20  02 00 16.065   +19 14 43.47  .76473 .84616  54.5 19.9 25.5  46
2019 06 20 21  02 00 21.428   +19 13 56.92  .76470 .84645  54.6 19.9 25.7  46
2019 06 20 22  02 00 26.796   +19 13 10.37  .76467 .84674  54.6 19.9 25.8  46
2019 06 20 23  02 00 32.169   +19 12 23.83  .76464 .84703  54.6 19.9 25.9  46
2019 06 21 00  02 00 37.548   +19 11 37.30  .76461 .84731  54.6 19.9 26.1  46
2019 06 21 01  02 00 42.931   +19 10 50.78  .76458 .84760  54.7 19.9 26.2  46
2019 06 21 02  02 00 48.320   +19 10 04.26  .76454 .84789  54.7 19.9 26.4  46
2019 06 21 03  02 00 53.713   +19 09 17.75  .76451 .84818  54.7 19.9 26.5  46
2019 06 21 04  02 00 59.111   +19 08 31.25  .76448 .84847  54.7 19.9 26.6  46
2019 06 21 05  02 01 04.515   +19 07 44.76  .76445 .84875  54.8 19.9 26.8  45
2019 06 21 06  02 01 09.923   +19 06 58.28  .76442 .84904  54.8 19.9 26.9  45
2019 06 21 07  02 01 15.336   +19 06 11.80  .76439 .84933  54.8 19.9 27.1  45
2019 06 21 08  02 01 20.755   +19 05 25.33  .76435 .84961  54.8 19.9 27.2  45
2019 06 21 09  02 01 26.178   +19 04 38.87  .76432 .84990  54.8 19.9 27.4  45
2019 06 21 10  02 01 31.606   +19 03 52.42  .76429 .85019  54.9 19.9 27.5  45
2019 06 21 11  02 01 37.039   +19 03 05.97  .76425 .85047  54.9 19.9 27.6  45
2019 06 21 12  02 01 42.478   +19 02 19.53  .76422 .85076  54.9 19.9 27.8  45
2019 06 21 13  02 01 47.921   +19 01 33.10  .76418 .85104  54.9 19.9 27.9  45
2019 06 21 14  02 01 53.369   +19 00 46.68  .76415 .85133  55.0 19.9 28.1  45
2019 06 21 15  02 01 58.822   +19 00 00.26  .76412 .85161  55.0 19.9 28.2  45